Flag for Poland Weather past 2 weeks in Dąbrowa Górnicza, Poland

34 °F


Feels Like: 27 °F
Forecast: 32 / 45 °F
Wind: 8 mph from Northeast

Location: Katowice Airport

Current Time: Oct 10, 2015 at 7:51:28 AM

Latest Report: Oct 10, 2015 at 7:00 AM

Visibility: 10 mi

Pressure: 30.21 "Hg

Humidity: 65%

Dew point: 23 °F

Location of Dąbrowa GórniczaLocation

Historic Weather in Dąbrowa Górnicza — Graph


Dąbrowa Górnicza temperature yesterday

Maximum temperature yesterday: 52 °F (at 12:30 PM)
Minimum temperature yesterday: 28 °F (at 6:30 AM)
Average temperature yesterday: 41 °F

Past Weeks' High & Low Weather Summary

High73 °F (Oct 4, 3:00 PM)100% (Sep 27, 7:30 AM)30.57 "Hg (Sep 27, 7:30 AM)
Low28 °F (Oct 1, 5:00 AM)32% (Oct 2, 3:00 PM)29.86 "Hg (Oct 6, 4:30 PM)
Average50 °F72%30.22 "Hg
* Reported Sep 25 6:00 AM — Oct 10 6:30 AM, Dąbrowa Górnicza, Weather by CustomWeather, © 2015

Note: Actual official high and low records may vary slightly from our data, if they occured in-between our weather recording intervals... More about our weather records


Dąbrowa Górnicza weather history for previous 24 hours

Time TempWeatherWind HumidityBarometerVisibility
6:30 AM
Sat, Oct 10
34 °FClear.10 mph65%30.18 "Hg10 mi
6:00 AM34 °FClear.9 mph65%30.18 "Hg10 mi
5:30 AM34 °FClear.9 mph65%30.21 "Hg10 mi
5:00 AM34 °FClear.8 mph65%30.21 "Hg10 mi
4:30 AM32 °FClear.8 mph69%30.18 "Hg10 mi
4:00 AM32 °FClear.7 mph69%30.21 "Hg10 mi
3:30 AM34 °FClear.9 mph70%30.21 "Hg10 mi
3:00 AM34 °FClear.8 mph70%30.21 "Hg10 mi
2:30 AM36 °FClear.8 mph65%30.21 "Hg10 mi
2:00 AM36 °FClear.8 mph65%30.21 "Hg10 mi
1:30 AM37 °FClear.9 mph60%30.21 "Hg10 mi
1:00 AM37 °FClear.8 mph60%30.21 "Hg10 mi
12:30 AM37 °FClear.8 mph65%30.21 "Hg10 mi
12:00 AM37 °FClear.8 mph60%30.21 "Hg10 mi
11:00 PM
Fri, Oct 9
39 °FClear.10 mph61%30.21 "Hg10 mi
10:30 PM41 °FClear.10 mph57%30.21 "Hg10 mi
10:00 PM41 °FClear.10 mph57%30.21 "Hg10 mi
9:30 PM43 °FClear.9 mph53%30.21 "Hg10 mi
9:00 PM43 °FClear.9 mph49%30.21 "Hg10 mi
8:30 PM45 °FClear.9 mph46%30.21 "Hg10 mi
8:00 PM45 °FClear.10 mph46%30.21 "Hg10 mi
7:30 PM46 °FClear.13 mph43%30.18 "Hg10 mi
7:00 PM46 °FPassing clouds.9 mph46%30.18 "HgN/A
6:30 PM46 °FSunny.8 mph46%30.18 "Hg10 mi
6:00 PM48 °FSunny.9 mph43%30.18 "Hg10 mi
5:30 PM48 °FSunny.9 mph43%30.18 "Hg10 mi
5:00 PM50 °FSunny.13 mph40%30.15 "Hg10 mi
4:30 PM50 °FPassing clouds.13 mph40%30.15 "HgN/A
4:00 PM50 °FSunny.12 mph43%30.15 "Hg10 mi
3:30 PM52 °FPassing clouds.13 mph38%30.15 "HgN/A
3:00 PM52 °FPassing clouds.13 mph38%30.15 "HgN/A
2:30 PM52 °FPassing clouds.10 mph41%30.15 "HgN/A
2:00 PM52 °FPassing clouds.9 mph44%30.15 "HgN/A
1:30 PM52 °FPassing clouds.12 mph44%30.15 "HgN/A
1:00 PM52 °FPassing clouds.12 mph44%30.15 "HgN/A
12:30 PM52 °FSunny.13 mph44%30.15 "Hg10 mi
12:00 PM50 °FPassing clouds.13 mph47%30.15 "HgN/A
11:30 AM50 °FPassing clouds.10 mph47%30.15 "HgN/A
11:00 AM48 °FSunny.12 mph50%30.15 "Hg10 mi
10:30 AM48 °FSunny.13 mph46%30.15 "Hg10 mi
10:00 AM45 °FPassing clouds.12 mph53%30.15 "HgN/A
9:30 AM41 °FSunny.7 mph61%30.15 "Hg10 mi
9:00 AM37 °FSunny.2 mph75%30.15 "Hg10 mi
8:30 AM36 °FSunny.3 mph81%30.15 "Hg10 mi
8:00 AM34 °FSunny.1 mph81%30.15 "Hg10 mi
7:30 AM30 °FClear.1 mph93%30.12 "Hg10 mi
7:00 AM30 °FFog.3 mph93%30.12 "HgN/A
Weather by CustomWeather, © 2015

See weather overviewHow to use our weather pages